TimeEST,TemperatureF,Dew PointF,Humidity,Sea Level PressureIn,VisibilityMPH,Wind Direction,Wind SpeedMPH,Gust SpeedMPH,PrecipitationIn,Events,Conditions,WindDirDegrees,DateUTC
12:53 AM,57.0,53.1,87,30.07,10.0,Calm,Calm,-,N/A,,Partly Cloudy,0,2013-02-05 05:53:00
1:53 AM,55.9,52.0,87,30.06,10.0,Calm,Calm,-,N/A,,Partly Cloudy,0,2013-02-05 06:53:00
2:53 AM,55.0,50.0,83,30.04,10.0,Calm,Calm,-,N/A,,Partly Cloudy,0,2013-02-05 07:53:00
3:53 AM,54.0,48.9,83,30.04,10.0,Calm,Calm,-,N/A,,Partly Cloudy,0,2013-02-05 08:53:00
4:53 AM,55.0,48.9,80,30.04,10.0,Calm,Calm,-,N/A,,Partly Cloudy,0,2013-02-05 09:53:00
5:53 AM,54.0,48.0,80,30.04,10.0,Calm,Calm,-,N/A,,Partly Cloudy,0,2013-02-05 10:53:00
6:53 AM,52.0,48.0,86,30.06,10.0,Calm,Calm,-,N/A,,Scattered Clouds,0,2013-02-05 11:53:00
7:53 AM,57.0,50.0,77,30.07,10.0,Calm,Calm,-,N/A,,Scattered Clouds,0,2013-02-05 12:53:00
8:53 AM,68.0,52.0,56,30.07,10.0,Calm,Calm,-,N/A,,Scattered Clouds,0,2013-02-05 13:53:00
9:53 AM,71.6,53.6,53,30.09,10.0,SE,4.6,-,N/A,,Scattered Clouds,130,2013-02-05 14:53:00
10:53 AM,75.2,51.8,44,30.09,10.0,South,4.6,-,N/A,,Scattered Clouds,180,2013-02-05 15:53:00
11:53 AM,77.0,53.1,43,30.07,10.0,SE,8.1,17.3,N/A,,Scattered Clouds,130,2013-02-05 16:53:00
12:53 PM,77.0,55.0,47,30.05,10.0,SE,9.2,-,N/A,,Mostly Cloudy,130,2013-02-05 17:53:00
1:53 PM,75.0,55.9,51,30.03,10.0,ESE,8.1,-,N/A,,Mostly Cloudy,120,2013-02-05 18:53:00
2:53 PM,75.0,57.0,53,30.02,10.0,SE,11.5,-,N/A,,Scattered Clouds,140,2013-02-05 19:53:00
3:53 PM,73.9,57.9,57,30.01,10.0,SE,11.5,-,N/A,,Scattered Clouds,140,2013-02-05 20:53:00
4:53 PM,73.9,59.0,59,30.01,10.0,SSE,12.7,-,N/A,,Scattered Clouds,150,2013-02-05 21:53:00
5:53 PM,72.0,57.9,61,30.01,10.0,SE,9.2,-,N/A,,Scattered Clouds,140,2013-02-05 22:53:00
6:53 PM,71.1,59.0,66,30.01,10.0,ESE,4.6,-,N/A,,Scattered Clouds,120,2013-02-05 23:53:00
7:53 PM,70.0,60.1,71,30.03,10.0,SE,5.8,-,N/A,,Partly Cloudy,140,2013-02-06 00:53:00
8:53 PM,70.0,61.0,73,30.04,10.0,SE,4.6,-,N/A,,Partly Cloudy,140,2013-02-06 01:53:00
9:53 PM,69.1,61.0,75,30.04,10.0,SE,3.5,-,N/A,,Partly Cloudy,140,2013-02-06 02:53:00
10:53 PM,66.9,61.0,81,30.06,10.0,Calm,Calm,-,N/A,,Scattered Clouds,0,2013-02-06 03:53:00
11:53 PM,63.0,59.0,87,30.05,10.0,Calm,Calm,-,N/A,,Scattered Clouds,0,2013-02-06 04:53:00